Overview Statistics Trail Chart Weather Telemetry Raw packets
 

This is the latest recevied weather packets stored in our database for station/object 2E1HJE-10. If no packets are shown the sender has not sent any weather packets the latest 10 day(s).

<< 4 5 6 7 8 9 10 >>
Time Temp. Humidity Pressure Rain* Wind** Luminosity Snow
1788481707 20° C 83% 1015.3 hPa 0 mm - - -
1788481129 20° C 83% 1015 hPa 0 mm - - -
1788480507 20° C 83% 1015 hPa 0 mm - - -
1788479908 20° C 82% 1015.6 hPa 0 mm - - -
1788479308 20° C 82% 1015.6 hPa 0 mm - - -
1788478707 20° C 82% 1015.6 hPa 0 mm - - -
1788477507 20° C 82% 1015.7 hPa 0 mm - - -
1788476907 20° C 82% 1015.7 hPa 0 mm - - -
1788476308 20.56° C 82% 1016.2 hPa 0 mm - - -
1788475107 20.56° C 82% 1016.2 hPa 0 mm - - -
1788474507 20.56° C 82% 1016.1 hPa 0 mm - - -
1788473907 20.56° C 82% 1016.1 hPa 0 mm - - -
1788473307 20.56° C 82% 1016.1 hPa 0 mm - - -
1788472107 20.56° C 80% 1016.4 hPa 0 mm - - -
1788470908 21.11° C 80% 1016.4 hPa 0 mm - - -
1788470307 20.56° C 80% 1016.2 hPa 0 mm - - -
1788469107 21.11° C 82% 1016.7 hPa 0 mm - - -
1788468507 21.11° C 82% 1016.7 hPa 0 mm - - -
1788467308 21.11° C 82% 1016.7 hPa 0 mm - - -
1788466707 20.56° C 82% 1016.5 hPa 0 mm - - -
1788466107 20.56° C 82% 1016.5 hPa 0 mm - - -
1788464907 21.11° C 80% 1016.7 hPa 0 mm - - -
1788463707 21.11° C 81% 1016.4 hPa 0 mm - - -
1788463107 21.11° C 81% 1016.4 hPa 0 mm - - -
1788461907 21.11° C 77% 1016.5 hPa 0 mm - - -

* Rain latest hour (hover to see other rain measurements)
** Current wind speed in m/s (hover to see current wind gust speed)